Regional Weather Roundup
Issued by NWS

Home | Current Version | Previous Version | Graphics & Text | Print | Product List | Glossary On
Versions: 1 2 3 4 5 6 7 8 9 10 11 12 13 14 15 16 17 18 19 20 21 22 23 24 25 26 27 28 29 30 31 32 33 34 35 36 37 38 39 40 41 42 43 44 45 46 47 48 49 50
273
ASUS43 KIND 201200
RWRIN

WEATHER ROUNDUP FOR INDIANA
NATIONAL WEATHER SERVICE INDIANAPOLIS IN
800 AM EDT SUN AUG 20 2017

NOTE: "FAIR" INDICATES FEW OR NO CLOUDS BELOW 12,000 FEET WITH NO
SIGNIFICANT WEATHER AND/OR OBSTRUCTIONS TO VISIBILITY.

* - STATION DOES NOT REPORT WEATHER SUCH AS PRECIPITATION OR FOG.

+ - STATION NOT QUALITY CONTROLLED BY THE NATIONAL WEATHER SERVICE.
    USE DATA WITH CAUTION...ESPECIALLY DEWPOINT AND RELATIVE
    HUMIDITY OBSERVATIONS.

INZ001>003-010>013-019-020-201300-
NORTHWEST INDIANA

CITY           SKY/WX    TMP DP  RH WIND       PRES   REMARKS
GARY /AIRPORT/ PTCLDY    64  61  88 VRB3      30.05R
MONTICELLO +   CLEAR     63  61  95 CALM      30.04F
6HR MIN TEMP:  61; 6HR MAX TEMP:  65;


$$

LMZ046-743>745-201300-
SOUTHERN LAKE MICHIGAN

STATION/POSITION TIME  TEMP    WIND        PRES    WAVE
                       AIR SEA DIR/SP/G            HT
                 (UTC) (F)     (DEG/KT/KT) (MB)    (FT)
BURNS HARBOR     1140   70     170/  6/ 12 1017.6R
MICHIGAN CITY    1130   65     130/  9/ 10   N/A
5NW MICH CITY    1150   69 74  160/ 12/ 14   N/A     1

$$

INZ004-005-014>016-021>024-201300-
NORTH CENTRAL INDIANA

CITY           SKY/WX    TMP DP  RH WIND       PRES   REMARKS
GOSHEN         SUNNY     60  56  86 CALM      30.08R
6HR MIN TEMP:  56; 6HR MAX TEMP:  60;

PERU/GRISSOM   SUNNY     64  62  93 SE5       30.05R
6HR MIN TEMP:  63; 6HR MAX TEMP:  66;

SOUTH BEND     SUNNY     59  59 100 CALM      30.09R
6HR MIN TEMP:  56; 6HR MAX TEMP:  61;


$$

INZ006>009-017-018-025>027-201300-
NORTHEAST INDIANA

CITY           SKY/WX    TMP DP  RH WIND       PRES   REMARKS
FORT WAYNE     MOSUNNY   62  59  90 CALM      30.08R
6HR MIN TEMP:  58; 6HR MAX TEMP:  63;


$$

INZ028-029-035-036-043>045-051>053-201300-
WEST CENTRAL INDIANA

CITY           SKY/WX    TMP DP  RH WIND       PRES   REMARKS
LAFAYETTE      CLEAR     63  63 100 CALM      30.04R
6HR MIN TEMP:  61; 6HR MAX TEMP:  66;

TERRE HAUTE    CLEAR     65  62  90 CALM      30.03S
6HR MIN TEMP:  61; 6HR MAX TEMP:  68;


$$

INZ030>032-037>040-046>048-054>057-064-065-201300-
CENTRAL INDIANA

CITY           SKY/WX    TMP DP  RH WIND       PRES   REMARKS
COLUMBUS       SUNNY     64  63  94 CALM      30.03F
GREENWOOD *+   SUNNY     66  64  92 E3        30.07R
6HR MIN TEMP:  65; 6HR MAX TEMP:  70;

INDIANAPOLIS   MOSUNNY   69  65  86 E5        30.05R
6HR MIN TEMP:  68; 6HR MAX TEMP:  73;

-EAGLE CREEK   SUNNY     68  62  81 CALM      30.05R
6HR MIN TEMP:  65; 6HR MAX TEMP:  72;

KOKOMO +       SUNNY     62  60  93 E5        30.07R
6HR MIN TEMP:  61; 6HR MAX TEMP:  65;

MT COMFORT *+  SUNNY     61  61 100 CALM      30.07R
SHELBYVILLE    SUNNY     66  62  87 CALM      30.06R
6HR MIN TEMP:  64; 6HR MAX TEMP:  68;


$$

INZ033-034-041-042-049-050-058-059-201300-
EAST CENTRAL INDIANA

CITY           SKY/WX    TMP DP  RH WIND       PRES   REMARKS
MUNCIE         SUNNY     69  60  73 SE5       30.07R
6HR MIN TEMP:  64; 6HR MAX TEMP:  70;

RICHMOND +     SUNNY     63  63 100 E6        30.09R

$$

INZ060-061-067>069-081>083-085>088-201300-
SOUTHWEST INDIANA

CITY           SKY/WX    TMP DP  RH WIND       PRES   REMARKS
EVANSVILLE     CLOUDY    73  69  87 CALM      30.06R
6HR MIN TEMP:  68; 6HR MAX TEMP:  73;

HUNTINGBURG +  MOCLDY    67  67 100 CALM      30.06R FOG
6HR MIN TEMP:  66; 6HR MAX TEMP:  71;


$$

INZ062-063-066-070>080-084-089>092-201300-
SOUTH CENTRAL AND SOUTHEAST INDIANA

CITY           SKY/WX    TMP DP  RH WIND       PRES   REMARKS
BLOOMINGTON    MOCLDY    65  63  93 CALM      30.05R FOG
6HR MIN TEMP:  61; 6HR MAX TEMP:  70;

MADISON *+     SUNNY     68  66  94 CALM      30.08S
SEYMOUR +      SUNNY     68  68 100 CALM      30.06R FOG

$$





USA.gov is the U.S. government's official web portal to all federal, state and local government web resources and services.